FW3157 Weather Reports


time (UTC)temp
F
wind
direction
speed
knots
gust
knots
rain 1hr
in
rain 24hr
in
rain mn
in
humidity
%
barometer
mb
20220812000943 76 271 3.5 6.1 0.00 0.00 0.00 74 1013.0
20220812000839 76 253 2.6 4.3 0.00 0.00 0.00 73 1013.0
20220812000835 76 296 1.7 5.2 0.00 0.00 0.00 74 1013.0
20220811235839 76 277 3.5 7.0 0.00 0.00 0.00 74 1013.0
20220811235835 76 273 3.5 7.0 0.00 0.00 0.00 73 1013.0
20220811234331 77 274 2.6 6.1 0.00 0.00 0.00 72 1013.0
20220811233831 77 275 2.6 6.1 0.00 0.00 0.00 68 1013.1
20220811233335 78 290 1.7 5.2 0.00 0.00 0.00 66 1013.2
20220811233332 78 264 2.6 5.2 0.00 0.00 0.00 68 1013.1
20220811232940 79 229 1.7 5.2 0.00 0.00 0.00 60 1013.1
20220811232936 78 234 1.7 5.2 0.00 0.00 0.00 63 1013.2
20220811231338 79 201 1.7 4.3 0.00 0.00 0.00 57 1013.0
20220811231334 79 207 1.7 3.5 0.00 0.00 0.00 58 1013.1
20220811230329 79 166 0.9 4.3 0.00 0.00 0.00 56 1013.0
20220811225832 79 113 0.9 3.5 0.00 0.00 0.00 56 1013.0
20220811225334 79 116 1.7 3.5 0.00 0.00 0.00 56 1012.9
20220811225330 79 113 1.7 3.5 0.00 0.00 0.00 56 1012.9
20220811224436 79 98 2.6 7.0 0.00 0.00 0.00 58 1013.1
20220811224330 79 106 1.7 4.3 0.00 0.00 0.00 57 1013.0
20220811223835 79 128 2.6 6.1 0.00 0.00 0.00 57 1013.0
20220811223831 79 113 2.6 5.2 0.00 0.00 0.00 57 1013.0
20220811222330 79 117 2.6 7.0 0.00 0.00 0.00 58 1013.0
20220811222045 78 73 2.6 5.2 0.00 0.00 0.00 59 1013.1
20220811221830 79 68 2.6 7.0 0.00 0.00 0.00 58 1013.1
20220811221330 79 101 1.7 7.0 0.00 0.00 0.00 58 1013.0
20220811220831 79 98 1.7 5.2 0.00 0.00 0.00 58 1013.1
20220811220827 79 105 1.7 5.2 0.00 0.00 0.00 58 1013.0
20220811220437 78 79 2.6 5.2 0.00 0.00 0.00 59 1013.1
20220811220433 79 93 1.7 4.3 0.00 0.00 0.00 59 1013.1
20220811220144 78 79 2.6 6.1 0.00 0.00 0.00 59 1013.1
20220811215040 79 79 3.5 6.1 0.00 0.00 0.00 58 1013.1
20220811213331 79 60 2.6 7.0 0.00 0.00 0.00 58 1013.2
20220811213327 79 99 3.5 7.0 0.00 0.00 0.00 58 1013.2
20220811212555 78 28 3.5 7.8 0.00 0.00 0.00 63 1013.4
20220811212328 79 93 3.5 6.1 0.00 0.00 0.00 57 1013.3
20220811212322 79 91 2.6 6.1 0.00 0.00 0.00 57 1013.3
20220811211930 79 27 3.5 7.8 0.00 0.00 0.00 60 1013.3
20220811211926 80 31 2.6 5.2 0.00 0.00 0.00 57 1013.3
20220811210825 79 337 2.6 5.2 0.00 0.00 0.00 58 1013.3
20220811210821 79 46 2.6 5.2 0.00 0.00 0.00 57 1013.2
20220811204822 78 321 4.3 9.6 0.00 0.00 0.00 63 1013.4
20220811204325 78 352 3.5 8.7 0.00 0.00 0.00 64 1013.3
20220811204321 78 309 5.2 9.6 0.00 0.00 0.00 64 1013.4
20220811203926 78 325 3.5 7.0 0.00 0.00 0.00 63 1013.3
20220811202821 78 298 4.3 8.7 0.00 0.00 0.00 64 1013.3
20220811202321 78 312 6.1 11.3 0.00 0.00 0.00 65 1013.3
20220811201826 80 307 4.3 8.7 0.00 0.00 0.00 62 1013.3
20220811201822 79 306 6.1 11.3 0.00 0.00 0.00 67 1013.3
20220811200926 81 287 0.9 3.5 0.00 0.00 0.00 54 1012.8
20220811200826 81 311 1.7 5.2 0.00 0.00 0.00 55 1012.9
20220811200822 81 257 3.5 7.0 0.00 0.00 0.00 56 1013.0
20220811195320 81 302 0.0 1.7 0.00 0.00 0.00 53 1012.8
20220811194824 81 167 0.9 2.6 0.00 0.00 0.00 53 1012.6
20220811194820 81 153 0.0 1.7 0.00 0.00 0.00 53 1012.7
20220811193823 81 162 0.9 1.7 0.00 0.00 0.00 53 1012.6
20220811193819 81 168 0.9 2.6 0.00 0.00 0.00 53 1012.6
20220811192822 81 175 1.7 3.5 0.00 0.00 0.00 54 1012.4
20220811192818 81 151 1.7 3.5 0.00 0.00 0.00 53 1012.5
20220811191821 81 197 1.7 2.6 0.00 0.00 0.00 54 1012.3
20220811191817 81 108 1.7 3.5 0.00 0.00 0.00 54 1012.4
20220811190823 81 91 0.9 3.5 0.00 0.00 0.00 55 1012.2
20220811190819 81 141 0.9 3.5 0.00 0.00 0.00 55 1012.3
20220811185821 82 137 0.0 3.5 0.00 0.00 0.00 55 1012.3
20220811185817 81 139 0.9 3.5 0.00 0.00 0.00 55 1012.2
20220811184819 82 155 0.9 1.7 0.00 0.00 0.00 52 1012.1
20220811184815 82 147 0.0 1.7 0.00 0.00 0.00 53 1012.1
20220811184427 82 101 1.7 7.0 0.00 0.00 0.00 51 1012.2
20220811184423 82 106 0.9 2.6 0.00 0.00 0.00 51 1012.1
20220811184028 81 110 2.6 7.0 0.00 0.00 0.00 51 1012.1
20220811182315 81 103 2.6 7.0 0.00 0.00 0.00 51 1012.2
20220811181819 81 44 1.7 4.3 0.00 0.00 0.00 51 1012.1
20220811181815 81 124 1.7 6.1 0.00 0.00 0.00 51 1012.1
20220811180816 82 100 1.7 4.3 0.00 0.00 0.00 51 1012.1
20220811180317 81 117 3.5 7.0 0.00 0.00 0.00 51 1012.0
20220811180313 82 136 2.6 7.0 0.00 0.00 0.00 51 1012.1
20220811175422 81 97 7.0 13.9 0.00 0.00 0.00 53 1012.0
20220811175318 81 65 7.0 11.3 0.00 0.00 0.00 52 1012.0
20220811175314 81 94 5.2 9.6 0.00 0.00 0.00 52 1012.0
20220811173817 81 98 7.8 15.6 0.00 0.00 0.00 54 1012.0
20220811173813 80 58 7.8 15.6 0.00 0.00 0.00 54 1012.0
20220811172818 81 98 7.0 14.8 0.00 0.00 0.00 52 1011.9
20220811172814 81 111 7.8 13.9 0.00 0.00 0.00 52 1011.8
20220811171819 82 68 6.1 12.2 0.00 0.00 0.00 53 1011.8
20220811171813 81 67 6.1 14.8 0.00 0.00 0.00 53 1011.8
20220811171421 83 95 6.1 12.2 0.00 0.00 0.00 51 1011.9
20220811170313 84 95 4.3 11.3 0.00 0.00 0.00 49 1011.9
20220811165818 85 65 3.5 7.8 0.00 0.00 0.00 46 1011.8
20220811165310 85 84 2.6 5.2 0.00 0.00 0.00 48 1011.7
20220811164816 85 234 2.6 6.1 0.00 0.00 0.00 49 1011.3
20220811164812 85 96 1.7 6.1 0.00 0.00 0.00 47 1011.5
20220811164419 85 29 2.6 6.1 0.00 0.00 0.00 50 1011.2
20220811163309 85 236 3.5 7.0 0.00 0.00 0.00 49 1011.1
20220811162812 85 191 2.6 7.8 0.00 0.00 0.00 49 1011.0
20220811162307 85 156 2.6 7.8 0.00 0.00 0.00 51 1011.0
20220811161811 85 173 3.5 7.8 0.00 0.00 0.00 50 1011.0
20220811161807 85 121 2.6 7.8 0.00 0.00 0.00 51 1010.9
20220811160810 86 217 3.5 7.0 0.00 0.00 0.00 50 1011.1
20220811160806 85 217 3.5 7.8 0.00 0.00 0.00 49 1011.1
20220811155913 87 160 3.5 8.7 0.00 0.00 0.00 48 1011.0
20220811155810 87 278 3.5 8.7 0.00 0.00 0.00 49 1011.1
20220811155806 86 229 3.5 7.8 0.00 0.00 0.00 49 1011.1
20220811155019 88 150 5.2 12.2 0.00 0.00 0.00 51 1010.7
20220811154911 87 79 3.5 11.3 0.00 0.00 0.00 47 1010.9
20220811154411 88 265 3.5 11.3 0.00 0.00 0.00 46 1010.9
20220811153303 88 207 3.5 11.3 0.00 0.00 0.00 48 1011.0
20220811152801 89 234 3.5 11.3 0.00 0.00 0.00 48 1011.0
20220811152305 89 146 3.5 8.7 0.00 0.00 0.00 48 1010.9
20220811151809 89 108 4.3 10.4 0.00 0.00 0.00 48 1010.8
20220811151801 89 79 4.3 10.4 0.00 0.00 0.00 49 1010.8
20220811150803 89 125 3.5 9.6 0.00 0.00 0.00 48 1010.7
20220811150406 89 154 4.3 12.2 0.00 0.00 0.00 46 1010.8
20220811150305 89 120 4.3 8.7 0.00 0.00 0.00 49 1010.7
20220811150301 89 144 3.5 9.6 0.00 0.00 0.00 46 1010.8
20220811144301 89 195 4.3 10.4 0.00 0.00 0.00 50 1010.7
20220811143904 89 232 4.3 9.6 0.00 0.00 0.00 44 1010.6
20220811143800 89 125 4.3 12.2 0.00 0.00 0.00 50 1010.7
20220811143304 88 237 5.2 9.6 0.00 0.00 0.00 43 1010.6
20220811143300 88 211 5.2 12.2 0.00 0.00 0.00 49 1010.7
20220811141800 90 226 3.5 7.8 0.00 0.00 0.00 44 1010.7
20220811141258 90 240 3.5 7.0 0.00 0.00 0.00 42 1010.6
20220811140904 91 231 3.5 7.8 0.00 0.00 0.00 38 1010.7
20220811140803 90 302 3.5 8.7 0.00 0.00 0.00 40 1010.7
20220811140759 90 212 3.5 8.7 0.00 0.00 0.00 40 1010.6
20220811135259 91 139 2.6 6.1 0.00 0.00 0.00 39 1010.6
20220811134759 91 226 2.6 8.7 0.00 0.00 0.00 38 1010.7
20220811134302 90 289 4.3 8.7 0.00 0.00 0.00 41 1010.7
20220811134258 91 232 3.5 8.7 0.00 0.00 0.00 39 1010.7
20220811133901 90 226 3.5 8.7 0.00 0.00 0.00 41 1010.7
20220811132801 89 188 4.3 10.4 0.00 0.00 0.00 41 1010.7
20220811132757 90 304 4.3 10.4 0.00 0.00 0.00 41 1010.7
20220811132401 89 272 4.3 7.8 0.00 0.00 0.00 42 1010.7
20220811131901 89 122 5.2 10.4 0.00 0.00 0.00 42 1010.9
20220811131404 89 215 5.2 11.3 0.00 0.00 0.00 44 1010.8
20220811130300 89 228 4.3 10.4 0.00 0.00 0.00 40 1010.9
20220811130256 89 243 4.3 11.3 0.00 0.00 0.00 41 1010.8
20220811125905 89 248 7.0 11.3 0.00 0.00 0.00 43 1011.0
20220811125901 89 237 5.2 11.3 0.00 0.00 0.00 42 1010.9
20220811125509 89 287 5.2 10.4 0.00 0.00 0.00 42 1011.1
20220811125505 89 243 7.0 11.3 0.00 0.00 0.00 41 1011.0
20220811123254 90 278 4.3 10.4 0.00 0.00 0.00 41 1011.2
20220811122757 90 210 3.5 10.4 0.00 0.00 0.00 40 1011.3
20220811122753 90 249 4.3 10.4 0.00 0.00 0.00 40 1011.3
20220811121757 89 274 5.2 8.7 0.00 0.00 0.00 40 1011.5
20220811121753 90 278 3.5 7.8 0.00 0.00 0.00 38 1011.4
20220811121002 89 300 6.1 11.3 0.00 0.00 0.00 42 1011.8
20220811120751 89 213 5.2 10.4 0.00 0.00 0.00 39 1011.5
20220811120258 89 278 4.3 11.3 0.00 0.00 0.00 38 1011.6
20220811120252 89 275 5.2 11.3 0.00 0.00 0.00 40 1011.6
20220811115859 89 245 5.2 10.4 0.00 0.00 0.00 40 1011.7
20220811115854 89 233 4.3 8.7 0.00 0.00 0.00 39 1011.6
20220811114959 89 219 6.1 12.2 0.00 0.00 0.00 42 1011.8
20220811113250 88 271 6.1 12.2 0.00 0.00 0.00 40 1011.9
20220811112856 89 252 5.2 11.3 0.00 0.00 0.00 41 1011.9
20220811112755 88 274 4.3 9.6 0.00 0.00 0.00 42 1011.9
20220811112751 88 301 6.1 10.4 0.00 0.00 0.00 41 1011.9
20220811111250 88 271 5.2 11.3 0.00 0.00 0.00 42 1011.9
20220811110751 89 264 5.2 10.4 0.00 0.00 0.00 39 1012.0
20220811110255 89 293 4.3 9.6 0.00 0.00 0.00 40 1012.1
20220811110251 89 283 6.1 10.4 0.00 0.00 0.00 40 1012.1
20220811105254 89 295 2.6 7.8 0.00 0.00 0.00 44 1012.2
20220811105250 89 284 2.6 8.7 0.00 0.00 0.00 41 1012.2
20220811104858 88 245 3.5 7.8 0.00 0.00 0.00 47 1012.5
20220811104854 89 150 2.6 7.8 0.00 0.00 0.00 44 1012.3
20220811103754 88 261 3.5 7.8 0.00 0.00 0.00 47 1012.4
20220811103750 88 147 2.6 7.0 0.00 0.00 0.00 46 1012.4
20220811102254 88 171 2.6 6.1 0.00 0.00 0.00 49 1012.7
20220811102250 88 226 2.6 7.8 0.00 0.00 0.00 47 1012.6
20220811101356 87 258 3.5 7.8 0.00 0.00 0.00 47 1012.7
20220811101254 87 231 3.5 7.8 0.00 0.00 0.00 48 1012.8
20220811101250 87 240 2.6 6.1 0.00 0.00 0.00 47 1012.7
20220811100355 87 119 2.6 7.0 0.00 0.00 0.00 49 1012.8
20220811095256 87 283 2.6 6.1 0.00 0.00 0.00 48 1012.8
20220811095252 87 223 2.6 5.2 0.00 0.00 0.00 49 1012.8
20220811094855 86 272 2.6 6.1 0.00 0.00 0.00 47 1012.9
20220811094355 86 256 2.6 6.1 0.00 0.00 0.00 49 1012.9
20220811093251 85 200 3.5 6.1 0.00 0.00 0.00 50 1012.9
20220811092750 85 216 3.5 6.1 0.00 0.00 0.00 47 1012.9
20220811092401 83 285 6.1 9.6 0.00 0.00 0.00 55 1013.2
20220811092255 85 214 3.5 7.8 0.00 0.00 0.00 51 1013.0
20220811092251 85 276 3.5 7.8 0.00 0.00 0.00 47 1012.9
20220811091255 84 286 3.5 7.0 0.00 0.00 0.00 53 1013.1
20220811091251 85 274 2.6 7.0 0.00 0.00 0.00 51 1013.0
20220811090250 84 315 3.5 7.8 0.00 0.00 0.00 54 1013.1
20220811085754 83 266 4.3 8.7 0.00 0.00 0.00 55 1013.2
20220811085750 84 287 3.5 7.8 0.00 0.00 0.00 55 1013.2
20220811084855 82 266 7.0 9.6 0.00 0.00 0.00 52 1013.2
20220811083750 82 266 6.1 8.7 0.00 0.00 0.00 55 1013.2
20220811083254 82 260 5.2 9.6 0.00 0.00 0.00 55 1013.3
20220811083250 82 268 5.2 8.7 0.00 0.00 0.00 55 1013.2
20220811082859 82 243 4.3 8.7 0.00 0.00 0.00 55 1013.3
20220811082855 82 281 4.3 9.6 0.00 0.00 0.00 55 1013.3
20220811081254 83 246 4.3 8.7 0.00 0.00 0.00 55 1013.4
20220811081250 82 252 5.2 8.7 0.00 0.00 0.00 55 1013.3
20220811080256 83 222 3.5 9.6 0.00 0.00 0.00 53 1013.4
20220811080252 83 262 4.3 9.6 0.00 0.00 0.00 52 1013.4
20220811075854 84 290 3.5 7.8 0.00 0.00 0.00 51 1013.4
20220811074748 83 300 4.3 7.8 0.00 0.00 0.00 48 1013.4
20220811074255 83 295 4.3 9.6 0.00 0.00 0.00 49 1013.3
20220811074251 83 318 3.5 7.8 0.00 0.00 0.00 48 1013.4
20220811073248 83 229 4.3 9.6 0.00 0.00 0.00 48 1013.3
20220811072752 82 322 5.2 9.6 0.00 0.00 0.00 48 1013.4
20220811072748 82 293 5.2 9.6 0.00 0.00 0.00 48 1013.3
20220811071747 82 291 5.2 9.6 0.00 0.00 0.00 49 1013.4
20220811071251 82 330 5.2 11.3 0.00 0.00 0.00 50 1013.3
20220811071247 82 313 5.2 11.3 0.00 0.00 0.00 49 1013.4
20220811070854 82 288 4.3 9.6 0.00 0.00 0.00 49 1013.3
20220811070850 82 297 4.3 8.7 0.00 0.00 0.00 50 1013.3
20220811065243 82 306 3.5 9.6 0.00 0.00 0.00 50 1013.3
20220811064742 82 318 3.5 7.0 0.00 0.00 0.00 49 1013.4
20220811064246 82 301 2.6 6.1 0.00 0.00 0.00 49 1013.5
20220811064242 82 245 3.5 7.0 0.00 0.00 0.00 49 1013.5
20220811063850 82 271 2.6 5.2 0.00 0.00 0.00 49 1013.4
20220811062741 81 302 2.6 5.2 0.00 0.00 0.00 49 1013.4
20220811062245 81 298 2.6 5.2 0.00 0.00 0.00 49 1013.4
20220811062241 81 336 2.6 5.2 0.00 0.00 0.00 49 1013.4
20220811061242 81 319 3.5 6.1 0.00 0.00 0.00 49 1013.4
20220811061238 81 316 2.6 6.1 0.00 0.00 0.00 49 1013.4
20220811060238 81 278 3.5 6.1 0.00 0.00 0.00 49 1013.4
20220811055742 80 359 2.6 5.2 0.00 0.00 0.00 49 1013.2
20220811055738 81 304 2.6 5.2 0.00 0.00 0.00 49 1013.3
20220811054738 80 326 2.6 5.2 0.00 0.00 0.00 49 1013.3
20220811054238 80 314 2.6 5.2 0.00 0.00 0.00 49 1013.3
20220811053737 80 17 3.5 8.7 0.00 0.00 0.00 49 1013.3
20220811053238 80 314 3.5 8.7 0.00 0.00 0.00 49 1013.2
20220811052738 80 41 4.3 7.8 0.00 0.00 0.00 49 1013.2
20220811052243 80 45 4.3 7.8 0.00 0.00 0.00 49 1013.2
20220811052237 80 6 5.2 7.8 0.00 0.00 0.00 49 1013.2
20220811051846 80 354 2.6 6.1 0.00 0.00 0.00 49 1013.2
20220811051340 80 54 2.6 6.1 0.00 0.00 0.00 49 1013.2
20220811050840 80 25 2.6 6.1 0.00 0.00 0.00 49 1013.2
20220811045735 80 30 3.5 6.1 0.00 0.00 0.00 49 1013.2
20220811045235 79 343 4.3 7.0 0.00 0.00 0.00 49 1013.2
20220811044736 79 358 3.5 7.8 0.00 0.00 0.00 49 1013.1
20220811044236 79 36 2.6 7.8 0.00 0.00 0.00 49 1013.1
20220811043740 79 30 1.7 3.5 0.00 0.00 0.00 50 1013.1
20220811043736 79 355 2.6 5.2 0.00 0.00 0.00 50 1013.1
20220811042740 79 330 2.6 5.2 0.00 0.00 0.00 50 1013.0
20220811042736 79 306 2.6 5.2 0.00 0.00 0.00 50 1013.0
20220811042337 79 294 2.6 4.3 0.00 0.00 0.00 50 1013.0
20220811041840 79 314 2.6 4.3 0.00 0.00 0.00 50 1012.9
20220811041238 79 9 2.6 5.2 0.00 0.00 0.00 50 1013.0
20220811041233 79 346 2.6 5.2 0.00 0.00 0.00 50 1012.9
20220811040945 79 40 2.6 4.3 0.00 0.00 0.00 50 1012.9
20220811035839 79 13 2.6 4.3 0.00 0.00 0.00 51 1012.8
20220811035338 79 313 3.5 8.7 0.00 0.00 0.00 51 1012.9
20220811034234 79 39 3.5 8.7 0.00 0.00 0.00 50 1012.9
20220811033737 79 324 2.6 7.0 0.00 0.00 0.00 50 1012.9
20220811033733 79 19 2.6 7.8 0.00 0.00 0.00 50 1012.9
20220811032732 79 350 3.5 7.0 0.00 0.00 0.00 51 1012.9
20220811032236 79 10 3.5 7.8 0.00 0.00 0.00 51 1012.9
20220811032232 79 26 3.5 7.8 0.00 0.00 0.00 51 1012.9
20220811031843 79 307 3.5 7.8 0.00 0.00 0.00 52 1012.9
20220811031835 79 16 3.5 7.8 0.00 0.00 0.00 51 1012.9
20220811030837 79 322 3.5 7.8 0.00 0.00 0.00 52 1012.8
20220811025729 79 321 3.5 7.8 0.00 0.00 0.00 52 1012.7
20220811025230 79 309 3.5 7.8 0.00 0.00 0.00 52 1012.7
20220811024734 79 314 3.5 6.1 0.00 0.00 0.00 52 1012.7
20220811024231 79 321 3.5 6.1 0.00 0.00 0.00 52 1012.6
20220811023729 79 49 3.5 5.2 0.00 0.00 0.00 52 1012.6
20220811023234 79 323 4.3 7.8 0.00 0.00 0.00 52 1012.7
20220811023230 79 345 3.5 7.8 0.00 0.00 0.00 52 1012.6
20220811022229 80 304 3.5 7.0 0.00 0.00 0.00 52 1012.7
20220811021839 80 351 2.6 7.0 0.00 0.00 0.00 51 1012.8
20220811021735 80 359 3.5 7.0 0.00 0.00 0.00 51 1012.8
20220811021731 80 312 3.5 6.1 0.00 0.00 0.00 51 1012.8
20220811020232 80 226 0.9 2.6 0.00 0.00 0.00 49 1012.9
20220811020228 80 288 0.9 4.3 0.00 0.00 0.00 52 1012.8
20220811015228 80 232 0.9 2.6 0.00 0.00 0.00 49 1012.9
20220811014728 80 240 0.9 3.5 0.00 0.00 0.00 49 1012.9
20220811014232 80 209 0.0 1.7 0.00 0.00 0.00 49 1012.8
20220811014228 80 186 0.9 3.5 0.00 0.00 0.00 49 1012.8
20220811013228 80 11 0.9 2.6 0.00 0.00 0.00 48 1012.8
20220811012729 80 29 1.7 4.3 0.00 0.00 0.00 49 1012.8
20220811012725 80 11 0.9 3.5 0.00 0.00 0.00 49 1012.7
20220811011937 80 357 4.3 8.7 0.00 0.00 0.00 48 1012.8
20220811011832 80 53 4.3 8.7 0.00 0.00 0.00 48 1012.8
20220811011730 80 343 4.3 8.7 0.00 0.00 0.00 49 1012.8
20220811011726 80 312 3.5 5.2 0.00 0.00 0.00 49 1012.8
20220811010935 80 45 4.3 7.0 0.00 0.00 0.00 48 1012.8
20220811005227 80 53 5.2 10.4 0.00 0.00 0.00 48 1012.8
20220811005223 80 29 3.5 7.0 0.00 0.00 0.00 48 1012.8
20220811004224 80 30 4.3 10.4 0.00 0.00 0.00 47 1012.9
20220811003723 81 27 3.5 7.0 0.00 0.00 0.00 47 1012.9
20220811003225 81 15 3.5 9.6 0.00 0.00 0.00 47 1012.9
20220811002728 81 32 4.3 7.8 0.00 0.00 0.00 47 1012.9
20220811002724 81 42 4.3 9.6 0.00 0.00 0.00 47 1012.9
20220811001727 81 32 4.3 8.7 0.00 0.00 0.00 47 1012.9
20220811001723 81 41 4.3 7.0 0.00 0.00 0.00 47 1012.9
20220811001336 81 37 4.3 8.7 0.00 0.00 0.00 47 1012.9